Snoqualmie River: Carnation station

back to: Snoqualmie river
Carnation station Summary - (NOAA Hydrograph: CRNW1)
flood stage: 54.0 ft
Latest reading:
Sat05/25 01:15 pm 46.58 ft 2756 cfs (steady)
Past 24hr max:
Fri05/24 01:15 pm 46.59 ft 2779 cfs
Forecasted crests: (published Sat 05/25/19 11:27 am)
Sun05/26 05:00 am 46.62 ft 2858 cfs
Mon05/27 05:00 am 46.49 ft 2560 cfs
Tue05/28 05:00 am 46.51 ft 2596 cfs
Wed05/29 05:00 am 46.47 ft 2510 cfs
Thu05/30 05:00 am 46.43 ft 2429 cfs
Fri05/31 05:00 am 46.42 ft 2406 cfs
Sat06/01 05:00 am 46.4 ft 2363 cfs
Sun06/02 05:00 am 46.37 ft 2291 cfs
Mon06/03 11:00 am 46.6 ft 2814 cfs

Carnation station Details

Latest Readings

Last 100 Readings:
Sat05/25 01:15 pm 46.58 ft 2756 cfs
Sat05/25 01:00 pm 46.58 ft 2756 cfs
Sat05/25 12:45 pm 46.59 ft 2779 cfs
Sat05/25 12:30 pm 46.58 ft 2756 cfs
Sat05/25 12:15 pm 46.58 ft 2756 cfs
Sat05/25 12:00 pm 46.58 ft 2756 cfs
Sat05/25 11:45 am 46.58 ft 2756 cfs
Sat05/25 11:30 am 46.58 ft 2756 cfs
Sat05/25 11:15 am 46.58 ft 2756 cfs
Sat05/25 11:00 am 46.58 ft 2756 cfs
Sat05/25 10:45 am 46.58 ft 2756 cfs
Sat05/25 10:30 am 46.58 ft 2756 cfs
Sat05/25 10:15 am 46.58 ft 2756 cfs
Sat05/25 10:00 am 46.58 ft 2756 cfs
Sat05/25 09:45 am 46.57 ft 2733 cfs
Sat05/25 09:30 am 46.58 ft 2756 cfs
Sat05/25 09:15 am 46.57 ft 2733 cfs
Sat05/25 09:00 am 46.58 ft 2756 cfs
Sat05/25 08:45 am 46.58 ft 2756 cfs
Sat05/25 08:30 am 46.56 ft 2710 cfs
Sat05/25 08:15 am 46.56 ft 2710 cfs
Sat05/25 08:00 am 46.56 ft 2710 cfs
Sat05/25 07:45 am 46.57 ft 2733 cfs
Sat05/25 07:30 am 46.56 ft 2710 cfs
Sat05/25 07:15 am 46.57 ft 2733 cfs
Sat05/25 07:00 am 46.56 ft 2710 cfs
Sat05/25 06:45 am 46.55 ft 2688 cfs
Sat05/25 06:30 am 46.55 ft 2688 cfs
Sat05/25 06:15 am 46.56 ft 2710 cfs
Sat05/25 06:00 am 46.56 ft 2710 cfs
Sat05/25 05:45 am 46.56 ft 2710 cfs
Sat05/25 05:30 am 46.55 ft 2688 cfs
Sat05/25 05:15 am 46.55 ft 2688 cfs
Sat05/25 05:00 am 46.55 ft 2688 cfs
Sat05/25 04:45 am 46.54 ft 2665 cfs
Sat05/25 04:30 am 46.55 ft 2688 cfs
Sat05/25 04:15 am 46.55 ft 2688 cfs
Sat05/25 04:00 am 46.56 ft 2710 cfs
Sat05/25 03:45 am 46.55 ft 2688 cfs
Sat05/25 03:30 am 46.55 ft 2688 cfs
Sat05/25 03:15 am 46.55 ft 2688 cfs
Sat05/25 03:00 am 46.55 ft 2688 cfs
Sat05/25 02:45 am 46.55 ft 2688 cfs
Sat05/25 02:30 am 46.55 ft 2688 cfs
Sat05/25 02:15 am 46.55 ft 2688 cfs
Sat05/25 02:00 am 46.54 ft 2665 cfs
Sat05/25 01:45 am 46.57 ft 2733 cfs
Sat05/25 01:30 am 46.55 ft 2688 cfs
Sat05/25 01:15 am 46.55 ft 2688 cfs
Sat05/25 01:00 am 46.56 ft 2710 cfs
Sat05/25 12:45 am 46.55 ft 2688 cfs
Sat05/25 12:30 am 46.55 ft 2688 cfs
Sat05/25 12:15 am 46.55 ft 2688 cfs
Sat05/25 12:00 am 46.55 ft 2688 cfs
Fri05/24 11:45 pm 46.55 ft 2688 cfs
Fri05/24 11:30 pm 46.55 ft 2688 cfs
Fri05/24 11:15 pm 46.56 ft 2710 cfs
Fri05/24 11:00 pm 46.56 ft 2710 cfs
Fri05/24 10:45 pm 46.55 ft 2688 cfs
Fri05/24 10:30 pm 46.55 ft 2688 cfs
Fri05/24 10:15 pm 46.56 ft 2710 cfs
Fri05/24 10:00 pm 46.56 ft 2710 cfs
Fri05/24 09:45 pm 46.55 ft 2688 cfs
Fri05/24 09:30 pm 46.56 ft 2710 cfs
Fri05/24 09:15 pm 46.56 ft 2710 cfs
Fri05/24 09:00 pm 46.56 ft 2710 cfs
Fri05/24 08:45 pm 46.56 ft 2710 cfs
Fri05/24 08:30 pm 46.56 ft 2710 cfs
Fri05/24 08:15 pm 46.56 ft 2710 cfs
Fri05/24 08:00 pm 46.57 ft 2733 cfs
Fri05/24 07:45 pm 46.56 ft 2710 cfs
Fri05/24 07:30 pm 46.57 ft 2733 cfs
Fri05/24 07:15 pm 46.57 ft 2733 cfs
Fri05/24 07:00 pm 46.58 ft 2756 cfs
Fri05/24 06:45 pm 46.57 ft 2733 cfs
Fri05/24 06:30 pm 46.56 ft 2710 cfs
Fri05/24 06:15 pm 46.58 ft 2756 cfs
Fri05/24 06:00 pm 46.57 ft 2733 cfs
Fri05/24 05:45 pm 46.58 ft 2756 cfs
Fri05/24 05:30 pm 46.57 ft 2733 cfs
Fri05/24 05:15 pm 46.57 ft 2733 cfs
Fri05/24 05:00 pm 46.58 ft 2756 cfs
Fri05/24 04:45 pm 46.58 ft 2756 cfs
Fri05/24 04:30 pm 46.57 ft 2733 cfs
Fri05/24 04:15 pm 46.58 ft 2756 cfs
Fri05/24 04:00 pm 46.59 ft 2779 cfs
Fri05/24 03:45 pm 46.58 ft 2756 cfs
Fri05/24 03:30 pm 46.58 ft 2756 cfs
Fri05/24 03:15 pm 46.58 ft 2756 cfs
Fri05/24 03:00 pm 46.58 ft 2756 cfs
Fri05/24 02:45 pm 46.56 ft 2710 cfs
Fri05/24 02:30 pm 46.57 ft 2733 cfs
Fri05/24 02:15 pm 46.58 ft 2756 cfs
Fri05/24 02:00 pm 46.57 ft 2733 cfs
Fri05/24 01:45 pm 46.56 ft 2710 cfs
Fri05/24 01:30 pm 46.59 ft 2779 cfs
Fri05/24 01:15 pm 46.59 ft 2779 cfs
Fri05/24 01:00 pm 46.58 ft 2756 cfs
Fri05/24 12:45 pm 46.57 ft 2733 cfs
Fri05/24 12:30 pm 46.56 ft 2710 cfs

Latest Forecasts

Currently Forecasted Readings:
Sat05/25 05:00 pm 46.55 ft 2688 cfs
Sat05/25 11:00 pm 46.59 ft 2779 cfs
Sun05/26 05:00 am 46.62 ft 2858 cfs
Sun05/26 11:00 am 46.58 ft 2745 cfs
Sun05/26 05:00 pm 46.51 ft 2589 cfs
Sun05/26 11:00 pm 46.49 ft 2549 cfs
Mon05/27 05:00 am 46.49 ft 2560 cfs
Mon05/27 11:00 am 46.47 ft 2510 cfs
Mon05/27 05:00 pm 46.45 ft 2475 cfs
Mon05/27 11:00 pm 46.48 ft 2532 cfs
Tue05/28 05:00 am 46.51 ft 2596 cfs
Tue05/28 11:00 am 46.51 ft 2587 cfs
Tue05/28 05:00 pm 46.48 ft 2532 cfs
Tue05/28 11:00 pm 46.47 ft 2505 cfs
Wed05/29 05:00 am 46.47 ft 2510 cfs
Wed05/29 11:00 am 46.45 ft 2473 cfs
Wed05/29 05:00 pm 46.42 ft 2408 cfs
Wed05/29 11:00 pm 46.42 ft 2401 cfs
Thu05/30 05:00 am 46.43 ft 2429 cfs
Thu05/30 11:00 am 46.42 ft 2404 cfs
Thu05/30 05:00 pm 46.4 ft 2352 cfs
Thu05/30 11:00 pm 46.4 ft 2365 cfs
Fri05/31 05:00 am 46.42 ft 2406 cfs
Fri05/31 11:00 am 46.41 ft 2384 cfs
Fri05/31 05:00 pm 46.39 ft 2335 cfs
Fri05/31 11:00 pm 46.39 ft 2331 cfs
Sat06/01 05:00 am 46.4 ft 2363 cfs
Sat06/01 11:00 am 46.4 ft 2350 cfs
Sat06/01 05:00 pm 46.37 ft 2295 cfs
Sat06/01 11:00 pm 46.36 ft 2283 cfs
Sun06/02 05:00 am 46.37 ft 2291 cfs
Sun06/02 11:00 am 46.36 ft 2277 cfs
Sun06/02 05:00 pm 46.34 ft 2227 cfs
Sun06/02 11:00 pm 46.41 ft 2382 cfs
Mon06/03 05:00 am 46.57 ft 2735 cfs
Mon06/03 11:00 am 46.6 ft 2814 cfs
Mon06/03 05:00 pm 46.53 ft 2636 cfs
Mon06/03 11:00 pm 46.44 ft 2447 cfs
Tue06/04 05:00 am 46.39 ft 2329 cfs

Snoqualmie River flood gauge data supplied by the
National Weather Service Northwest River Forecast Center.

Sign up for Floodzilla alerts.